NHX12 EHTP-EHTP

Flight info

Callsign NHX12
Flight time 1h 41m
Altitude 1000
Route DCT
Aircraft EC45/L-SBDGRYZ/LB1

Departure

Time 2026-04-17 19:03
Airport Maasvlakte Heliport (EHTP)

Arrival

Time 2026-04-17 20:45
Airport Maasvlakte Heliport (EHTP)
Time Latitude Longitude Altitude Speed Heading
2026-04-17 18:52 51.95944 4.09010 17 ft 0 kts 207°
2026-04-17 19:02 51.95944 4.09011 28 ft 0 kts 207°
2026-04-17 19:02 51.95944 4.09003 32 ft 2 kts 211°
2026-04-17 19:02 51.95941 4.09001 48 ft 1 kts 209°
2026-04-17 19:02 51.95947 4.09015 100 ft 4 kts 209°
2026-04-17 19:03 51.95993 4.09048 178 ft 3 kts 210°
2026-04-17 19:03 51.95847 4.08906 250 ft 50 kts 211°
2026-04-17 19:03 51.95577 4.08519 493 ft 52 kts 261°
2026-04-17 19:03 51.95760 4.07937 680 ft 74 kts 323°
2026-04-17 19:04 51.96332 4.07933 773 ft 92 kts 12°
2026-04-17 19:04 51.96974 4.07960 917 ft 92 kts 338°
2026-04-17 19:04 51.97579 4.07591 1058 ft 93 kts 326°
2026-04-17 19:04 51.98060 4.06898 1054 ft 95 kts 299°
2026-04-17 19:05 51.98377 4.05889 1044 ft 105 kts 289°
2026-04-17 19:05 51.98688 4.04751 1043 ft 114 kts 289°
2026-04-17 19:05 51.99008 4.03539 1045 ft 119 kts 289°
2026-04-17 19:05 51.99325 4.02308 1044 ft 122 kts 288°
2026-04-17 19:06 51.99519 4.00975 1038 ft 122 kts 274°
2026-04-17 19:06 51.99510 3.99619 1060 ft 114 kts 271°
2026-04-17 19:06 51.99518 3.98407 1057 ft 104 kts 274°
2026-04-17 19:06 51.99536 3.97256 1051 ft 97 kts 275°
2026-04-17 19:07 51.99553 3.96181 1045 ft 96 kts 276°
2026-04-17 19:07 51.99574 3.95061 1036 ft 103 kts 275°
2026-04-17 19:07 51.99589 3.93922 1039 ft 101 kts 275°
2026-04-17 19:07 51.99604 3.92763 1041 ft 101 kts 275°
2026-04-17 19:08 51.99618 3.91625 1044 ft 103 kts 275°
2026-04-17 19:08 51.99632 3.90452 1041 ft 105 kts 275°
2026-04-17 19:08 51.99644 3.89278 1038 ft 104 kts 275°
2026-04-17 19:08 51.99655 3.88105 1040 ft 104 kts 274°
2026-04-17 19:09 51.99665 3.86936 1041 ft 104 kts 274°
2026-04-17 19:09 51.99675 3.85767 1041 ft 103 kts 274°
2026-04-17 19:09 51.99685 3.84599 1043 ft 104 kts 275°
2026-04-17 19:09 51.99695 3.83428 1040 ft 104 kts 274°
2026-04-17 19:10 51.99703 3.82260 1041 ft 103 kts 274°
2026-04-17 19:10 51.99709 3.81488 1040 ft 103 kts 274°
2026-04-17 19:10 51.99722 3.79915 1037 ft 105 kts 274°
2026-04-17 19:10 51.99728 3.79136 1039 ft 105 kts 274°
2026-04-17 19:11 51.99737 3.77947 1036 ft 106 kts 274°
2026-04-17 19:11 51.99745 3.76749 1041 ft 105 kts 274°
2026-04-17 19:11 51.99753 3.75565 1037 ft 105 kts 274°
2026-04-17 19:11 51.99762 3.74372 1039 ft 106 kts 273°
2026-04-17 19:12 51.99769 3.73189 1039 ft 104 kts 273°
2026-04-17 19:12 51.99778 3.72003 1037 ft 105 kts 273°
2026-04-17 19:12 51.99786 3.70820 1037 ft 105 kts 274°
2026-04-17 19:12 51.99793 3.69636 1038 ft 104 kts 274°
2026-04-17 19:13 51.99800 3.68459 1033 ft 104 kts 273°
2026-04-17 19:13 51.99807 3.67281 1037 ft 104 kts 273°
2026-04-17 19:13 51.99815 3.66101 1032 ft 105 kts 273°
2026-04-17 19:13 51.99822 3.64925 1038 ft 103 kts 273°
2026-04-17 19:14 51.99829 3.63756 1038 ft 104 kts 274°
2026-04-17 19:14 51.99836 3.62600 1036 ft 103 kts 273°
2026-04-17 19:14 51.99844 3.61427 1036 ft 104 kts 274°
2026-04-17 19:14 51.99851 3.60251 1038 ft 105 kts 273°
2026-04-17 19:15 51.99858 3.59069 1036 ft 104 kts 274°
2026-04-17 19:15 51.99864 3.57900 1037 ft 103 kts 273°
2026-04-17 19:15 51.99871 3.56726 1040 ft 104 kts 273°
2026-04-17 19:15 51.99877 3.55555 1041 ft 104 kts 273°
2026-04-17 19:16 51.99883 3.54389 1041 ft 104 kts 272°
2026-04-17 19:16 51.99889 3.53216 1040 ft 104 kts 273°
2026-04-17 19:16 51.99894 3.52039 1042 ft 104 kts 272°
2026-04-17 19:16 51.99900 3.50868 1039 ft 104 kts 272°
2026-04-17 19:17 51.99906 3.49691 1038 ft 104 kts 272°
2026-04-17 19:17 51.99911 3.48527 1042 ft 103 kts 272°
2026-04-17 19:17 51.99917 3.47360 1041 ft 103 kts 273°
2026-04-17 19:17 51.99923 3.46197 1041 ft 103 kts 272°
2026-04-17 19:18 51.99927 3.45028 1045 ft 103 kts 272°
2026-04-17 19:18 51.99931 3.43863 1048 ft 103 kts 271°
2026-04-17 19:18 51.99936 3.42696 1043 ft 103 kts 273°
2026-04-17 19:18 51.99940 3.41530 1042 ft 103 kts 273°
2026-04-17 19:19 51.99945 3.40365 1042 ft 103 kts 273°
2026-04-17 19:19 51.99948 3.39204 1045 ft 103 kts 272°
2026-04-17 19:19 51.99952 3.38046 1043 ft 102 kts 272°
2026-04-17 19:19 51.99955 3.36903 1045 ft 101 kts 272°
2026-04-17 19:20 51.99960 3.35769 1045 ft 103 kts 265°
2026-04-17 19:20 51.99959 3.34591 1048 ft 105 kts 264°
2026-04-17 19:20 51.99964 3.33424 1047 ft 103 kts 266°
2026-04-17 19:20 51.99970 3.32259 1047 ft 102 kts 267°
2026-04-17 19:21 51.99973 3.31126 1043 ft 100 kts 266°
2026-04-17 19:21 51.99977 3.29998 1045 ft 100 kts 266°
2026-04-17 19:21 51.99980 3.28869 1047 ft 100 kts 266°
2026-04-17 19:21 51.99984 3.27725 1044 ft 103 kts 266°
2026-04-17 19:22 51.99987 3.26564 1048 ft 102 kts 266°
2026-04-17 19:22 51.99991 3.25407 1050 ft 102 kts 266°
2026-04-17 19:22 51.99994 3.24254 1048 ft 102 kts 266°
2026-04-17 19:22 51.99997 3.23101 1051 ft 101 kts 266°
2026-04-17 19:23 52.00000 3.21982 1046 ft 100 kts 266°
2026-04-17 19:23 52.00006 3.19695 1045 ft 102 kts 265°
2026-04-17 19:23 52.00008 3.18554 1043 ft 100 kts 265°
2026-04-17 19:24 52.00010 3.17413 1042 ft 102 kts 265°
2026-04-17 19:24 52.00012 3.16270 1043 ft 101 kts 264°
2026-04-17 19:24 52.00014 3.15138 1041 ft 100 kts 266°
2026-04-17 19:24 52.00016 3.14003 1037 ft 101 kts 266°
2026-04-17 19:25 52.00018 3.12851 1043 ft 101 kts 266°
2026-04-17 19:25 52.00019 3.11718 1036 ft 100 kts 266°
2026-04-17 19:25 52.00021 3.10583 1039 ft 103 kts 264°
2026-04-17 19:25 52.00023 3.09429 1037 ft 102 kts 264°
2026-04-17 19:26 52.00024 3.08269 1035 ft 102 kts 264°
2026-04-17 19:26 52.00025 3.07127 1037 ft 101 kts 265°
2026-04-17 19:26 52.00025 3.06001 1035 ft 99 kts 266°
2026-04-17 19:26 52.00026 3.04878 1034 ft 99 kts 265°
2026-04-17 19:27 52.00030 3.03755 1035 ft 100 kts 266°
2026-04-17 19:27 52.00041 3.02625 1027 ft 102 kts 266°
2026-04-17 19:27 52.00058 3.01457 1037 ft 102 kts 265°
2026-04-17 19:27 52.00075 3.00424 1042 ft 83 kts 267°
2026-04-17 19:28 52.00109 2.99407 1030 ft 94 kts 270°
2026-04-17 19:28 52.00204 2.98394 1039 ft 86 kts 272°
2026-04-17 19:28 52.00299 2.97508 1040 ft 72 kts 272°
2026-04-17 19:28 52.00380 2.96790 924 ft 57 kts 271°
2026-04-17 19:29 52.00450 2.96216 791 ft 47 kts 271°
2026-04-17 19:29 52.00518 2.95735 680 ft 42 kts 271°
2026-04-17 19:29 52.00593 2.95296 585 ft 39 kts 271°
2026-04-17 19:29 52.00635 2.94914 480 ft 30 kts 251°
2026-04-17 19:30 52.00594 2.94605 373 ft 27 kts 245°
2026-04-17 19:30 52.00547 2.94306 373 ft 28 kts 240°
2026-04-17 19:30 52.00481 2.94029 376 ft 23 kts 236°
2026-04-17 19:30 52.00440 2.93863 292 ft 10 kts 227°
2026-04-17 19:31 52.00447 2.93778 276 ft 7 kts 213°
2026-04-17 19:31 52.00433 2.93745 287 ft 8 kts 210°
2026-04-17 19:31 52.00385 2.93679 291 ft 10 kts 210°
2026-04-17 19:31 52.00331 2.93608 292 ft 8 kts 211°
2026-04-17 19:32 52.00306 2.93562 288 ft 2 kts 198°
2026-04-17 19:32 52.00300 2.93547 289 ft 3 kts 203°
2026-04-17 19:32 52.00283 2.93522 292 ft 4 kts 206°
2026-04-17 19:32 52.00280 2.93512 288 ft 1 kts 206°
2026-04-17 19:33 52.00276 2.93512 291 ft 1 kts 206°
2026-04-17 19:33 52.00272 2.93502 292 ft 2 kts 206°
2026-04-17 19:33 52.00273 2.93488 291 ft 0 kts 206°
2026-04-17 19:33 52.00275 2.93481 292 ft 1 kts 206°
2026-04-17 19:34 52.00276 2.93479 291 ft 0 kts 206°
2026-04-17 19:34 52.00276 2.93478 292 ft 0 kts 206°
2026-04-17 19:35 52.00276 2.93477 209 ft 0 kts 206°
2026-04-17 19:36 52.00273 2.93485 203 ft 3 kts 206°
2026-04-17 19:37 52.00265 2.93511 201 ft 1 kts 206°
2026-04-17 19:37 52.00264 2.93512 202 ft 0 kts 206°
2026-04-17 19:37 52.00232 2.93488 207 ft 16 kts 204°
2026-04-17 19:38 52.00054 2.93366 208 ft 39 kts 206°
2026-04-17 19:38 51.99847 2.92951 200 ft 59 kts 244°
2026-04-17 19:38 51.99895 2.92204 374 ft 77 kts 285°
2026-04-17 19:38 52.00297 2.91520 630 ft 92 kts 319°
2026-04-17 19:39 52.00960 2.91235 868 ft 107 kts 349°
2026-04-17 19:39 52.01737 2.91497 1002 ft 125 kts 17°
2026-04-17 19:39 52.02504 2.92342 1010 ft 141 kts 40°
2026-04-17 19:39 52.03176 2.93546 1012 ft 148 kts 49°
2026-04-17 19:40 52.03835 2.94812 1008 ft 148 kts 50°
2026-04-17 19:40 52.04501 2.96093 1009 ft 149 kts 48°
2026-04-17 19:40 52.05176 2.97389 1015 ft 150 kts 48°
2026-04-17 19:40 52.05849 2.98672 1007 ft 149 kts 50°
2026-04-17 19:41 52.06522 2.99954 1010 ft 150 kts 50°
2026-04-17 19:41 52.07194 3.01227 1008 ft 148 kts 48°
2026-04-17 19:41 52.07862 3.02494 1008 ft 148 kts 49°
2026-04-17 19:41 52.08537 3.03777 1003 ft 150 kts 49°
2026-04-17 19:42 52.09214 3.05059 1011 ft 149 kts 49°
2026-04-17 19:42 52.09884 3.06328 1005 ft 148 kts 49°
2026-04-17 19:42 52.10554 3.07597 1011 ft 146 kts 49°
2026-04-17 19:42 52.11212 3.08843 1010 ft 146 kts 50°
2026-04-17 19:43 52.11880 3.10111 1005 ft 148 kts 48°
2026-04-17 19:43 52.12552 3.11386 1010 ft 147 kts 47°
2026-04-17 19:43 52.13211 3.12633 1007 ft 144 kts 49°
2026-04-17 19:43 52.13855 3.13858 1008 ft 145 kts 49°
2026-04-17 19:44 52.14531 3.15145 1008 ft 149 kts 49°
2026-04-17 19:44 52.15199 3.16412 1010 ft 146 kts 48°
2026-04-17 19:44 52.15845 3.17637 1004 ft 145 kts 49°
2026-04-17 19:44 52.16501 3.18886 1005 ft 145 kts 50°
2026-04-17 19:45 52.17160 3.20144 1007 ft 146 kts 50°
2026-04-17 19:45 52.17816 3.21394 1003 ft 145 kts 49°
2026-04-17 19:45 52.18473 3.22645 1003 ft 146 kts 50°
2026-04-17 19:45 52.19137 3.23916 1009 ft 147 kts 50°
2026-04-17 19:46 52.19790 3.25159 1004 ft 143 kts 50°
2026-04-17 19:46 52.20438 3.26392 1003 ft 144 kts 49°
2026-04-17 19:46 52.21094 3.27648 1002 ft 146 kts 50°
2026-04-17 19:46 52.21749 3.28901 1007 ft 146 kts 50°
2026-04-17 19:47 52.22405 3.30151 1004 ft 146 kts 50°
2026-04-17 19:47 52.23067 3.31418 1010 ft 147 kts 50°
2026-04-17 19:47 52.23729 3.32684 1007 ft 145 kts 50°
2026-04-17 19:47 52.24383 3.33933 997 ft 146 kts 51°
2026-04-17 19:48 52.25045 3.35203 1006 ft 147 kts 50°
2026-04-17 19:48 52.25698 3.36449 1001 ft 144 kts 50°
2026-04-17 19:48 52.26351 3.37702 1004 ft 145 kts 50°
2026-04-17 19:48 52.27009 3.38962 1005 ft 145 kts 49°
2026-04-17 19:49 52.27658 3.40206 1003 ft 144 kts 50°
2026-04-17 19:49 52.28314 3.41468 1004 ft 147 kts 50°
2026-04-17 19:49 52.28969 3.42724 1006 ft 145 kts 50°
2026-04-17 19:49 52.29620 3.43975 1004 ft 146 kts 50°
2026-04-17 19:50 52.30282 3.45252 1004 ft 146 kts 50°
2026-04-17 19:50 52.30840 3.46619 1005 ft 145 kts 63°
2026-04-17 19:50 52.31423 3.47981 1002 ft 147 kts 50°
2026-04-17 19:50 52.32104 3.49211 1008 ft 145 kts 47°
2026-04-17 19:51 52.32767 3.50452 1000 ft 146 kts 51°
2026-04-17 19:51 52.33424 3.51727 1004 ft 148 kts 51°
2026-04-17 19:51 52.34083 3.53005 1006 ft 146 kts 50°
2026-04-17 19:51 52.34741 3.54271 1004 ft 145 kts 51°
2026-04-17 19:52 52.35397 3.55531 1007 ft 146 kts 51°
2026-04-17 19:52 52.36060 3.56799 1007 ft 146 kts 50°
2026-04-17 19:52 52.36716 3.58050 1007 ft 144 kts 50°
2026-04-17 19:52 52.37373 3.59307 1002 ft 147 kts 50°
2026-04-17 19:53 52.38037 3.60572 1010 ft 145 kts 50°
2026-04-17 19:53 52.38691 3.61815 1005 ft 145 kts 51°
2026-04-17 19:53 52.39343 3.63061 1009 ft 146 kts 49°
2026-04-17 19:53 52.39998 3.64309 1005 ft 144 kts 50°
2026-04-17 19:54 52.40653 3.65558 1010 ft 144 kts 50°
2026-04-17 19:54 52.41304 3.66800 1007 ft 143 kts 50°
2026-04-17 19:54 52.41952 3.68038 1010 ft 143 kts 50°
2026-04-17 19:54 52.42381 3.68859 1007 ft 143 kts 50°
2026-04-17 19:55 52.43027 3.70092 1013 ft 142 kts 50°
2026-04-17 19:55 52.43678 3.71339 1007 ft 144 kts 50°
2026-04-17 19:55 52.44320 3.72567 1011 ft 143 kts 50°
2026-04-17 19:55 52.44966 3.73801 1015 ft 142 kts 50°
2026-04-17 19:56 52.45607 3.75024 1013 ft 142 kts 50°
2026-04-17 19:56 52.46257 3.76272 1014 ft 144 kts 51°
2026-04-17 19:56 52.46905 3.77510 1011 ft 142 kts 50°
2026-04-17 19:56 52.47548 3.78741 1007 ft 144 kts 50°
2026-04-17 19:57 52.48196 3.79985 1014 ft 143 kts 50°
2026-04-17 19:57 52.48849 3.81207 1019 ft 141 kts 49°
2026-04-17 19:57 52.49510 3.82412 1019 ft 142 kts 49°
2026-04-17 19:57 52.50184 3.83616 1018 ft 144 kts 47°
2026-04-17 19:58 52.50773 3.84935 1020 ft 143 kts 63°
2026-04-17 19:58 52.51059 3.86484 1019 ft 142 kts 86°
2026-04-17 19:58 52.50949 3.88047 1020 ft 138 kts 112°
2026-04-17 19:58 52.50537 3.89423 1022 ft 131 kts 129°
2026-04-17 19:59 52.49976 3.90585 1019 ft 130 kts 135°
2026-04-17 19:59 52.49406 3.91748 1025 ft 131 kts 135°
2026-04-17 19:59 52.48835 3.92902 1023 ft 130 kts 135°
2026-04-17 19:59 52.48258 3.94060 1019 ft 132 kts 135°
2026-04-17 20:00 52.47679 3.95218 1021 ft 131 kts 135°
2026-04-17 20:00 52.47099 3.96372 1021 ft 131 kts 135°
2026-04-17 20:00 52.46514 3.97531 1025 ft 132 kts 135°
2026-04-17 20:00 52.45951 3.98662 969 ft 126 kts 134°
2026-04-17 20:01 52.45463 3.99691 855 ft 99 kts 134°
2026-04-17 20:01 52.45195 4.00524 694 ft 69 kts 118°
2026-04-17 20:01 52.45072 4.01188 555 ft 55 kts 118°
2026-04-17 20:01 52.44962 4.01749 486 ft 47 kts 123°
2026-04-17 20:02 52.44800 4.02131 426 ft 37 kts 154°
2026-04-17 20:02 52.44590 4.02277 375 ft 30 kts 192°
2026-04-17 20:02 52.44447 4.02141 339 ft 21 kts 215°
2026-04-17 20:02 52.44386 4.01927 298 ft 15 kts 207°
2026-04-17 20:03 52.44310 4.01887 289 ft 5 kts 207°
2026-04-17 20:03 52.44272 4.01817 242 ft 14 kts 220°
2026-04-17 20:03 52.44239 4.01730 204 ft 2 kts 232°
2026-04-17 20:03 52.44213 4.01822 203 ft 9 kts 265°
2026-04-17 20:04 52.44255 4.01806 130 ft 8 kts 237°
2026-04-17 20:04 52.44262 4.01749 105 ft 4 kts 222°
2026-04-17 20:04 52.44262 4.01732 55 ft 1 kts 219°
2026-04-17 20:04 52.44262 4.01730 45 ft 1 kts 226°
2026-04-17 20:06 52.44262 4.01731 66 ft 4 kts 221°
2026-04-17 20:07 52.44191 4.01801 277 ft 26 kts 221°
2026-04-17 20:07 52.43888 4.01509 463 ft 70 kts 211°
2026-04-17 20:07 52.43337 4.01420 561 ft 93 kts 163°
2026-04-17 20:07 52.42874 4.02242 735 ft 110 kts 103°
2026-04-17 20:08 52.42814 4.03553 877 ft 123 kts 81°
2026-04-17 20:08 52.42876 4.05025 899 ft 134 kts 81°
2026-04-17 20:08 52.42961 4.06549 776 ft 135 kts 91°
2026-04-17 20:08 52.43064 4.08084 803 ft 136 kts 90°
2026-04-17 20:09 52.43182 4.09602 923 ft 131 kts 90°
2026-04-17 20:09 52.43297 4.11061 1014 ft 131 kts 90°
2026-04-17 20:09 52.43413 4.12540 1014 ft 130 kts 90°
2026-04-17 20:09 52.43531 4.14018 1015 ft 130 kts 90°
2026-04-17 20:10 52.43648 4.15488 1010 ft 130 kts 90°
2026-04-17 20:10 52.43763 4.16969 1011 ft 131 kts 90°
2026-04-17 20:10 52.43879 4.18451 1008 ft 131 kts 91°
2026-04-17 20:10 52.43994 4.19923 1006 ft 130 kts 90°
2026-04-17 20:11 52.44107 4.21398 1012 ft 130 kts 90°
2026-04-17 20:11 52.44219 4.22838 1014 ft 128 kts 91°
2026-04-17 20:11 52.44330 4.24304 1008 ft 130 kts 90°
2026-04-17 20:11 52.44444 4.25791 1014 ft 129 kts 90°
2026-04-17 20:12 52.44554 4.27231 1007 ft 130 kts 91°
2026-04-17 20:12 52.44665 4.28703 1012 ft 130 kts 90°
2026-04-17 20:12 52.44777 4.30159 1008 ft 128 kts 91°
2026-04-17 20:12 52.44886 4.31616 1007 ft 130 kts 91°
2026-04-17 20:13 52.44997 4.33096 1013 ft 130 kts 90°
2026-04-17 20:13 52.45108 4.34562 1010 ft 129 kts 91°
2026-04-17 20:13 52.45218 4.36022 1006 ft 129 kts 91°
2026-04-17 20:13 52.45328 4.37487 1011 ft 130 kts 91°
2026-04-17 20:14 52.45439 4.38962 1010 ft 130 kts 91°
2026-04-17 20:14 52.45549 4.40429 1013 ft 129 kts 90°
2026-04-17 20:14 52.45659 4.41898 1013 ft 131 kts 91°
2026-04-17 20:14 52.45770 4.43380 1014 ft 130 kts 90°
2026-04-17 20:15 52.45880 4.44851 1012 ft 131 kts 90°
2026-04-17 20:15 52.45991 4.46334 1013 ft 130 kts 90°
2026-04-17 20:15 52.46100 4.47800 1009 ft 130 kts 91°
2026-04-17 20:15 52.46210 4.49282 1008 ft 131 kts 90°
2026-04-17 20:16 52.46320 4.50755 1011 ft 130 kts 90°
2026-04-17 20:16 52.46429 4.52225 1001 ft 130 kts 90°
2026-04-17 20:16 52.46539 4.53664 963 ft 122 kts 90°
2026-04-17 20:16 52.46647 4.55022 778 ft 119 kts 90°
2026-04-17 20:17 52.46727 4.56357 615 ft 115 kts 92°
2026-04-17 20:17 52.46870 4.57518 474 ft 92 kts 85°
2026-04-17 20:17 52.47054 4.58397 356 ft 73 kts 80°
2026-04-17 20:17 52.47217 4.59040 282 ft 49 kts 87°
2026-04-17 20:18 52.47233 4.59420 201 ft 19 kts 156°
2026-04-17 20:18 52.47120 4.59402 111 ft 17 kts 210°
2026-04-17 20:18 52.47044 4.59368 66 ft 6 kts 217°
2026-04-17 20:18 52.47008 4.59353 37 ft 4 kts 213°
2026-04-17 20:19 52.46993 4.59355 26 ft 1 kts 236°
2026-04-17 20:19 52.46992 4.59350 15 ft 0 kts 237°
2026-04-17 20:19 52.46993 4.59350 13 ft 0 kts 242°
2026-04-17 20:24 52.46992 4.59349 19 ft 0 kts 251°
2026-04-17 20:24 52.46992 4.59347 21 ft 1 kts 251°
2026-04-17 20:24 52.46989 4.59350 36 ft 4 kts 254°
2026-04-17 20:25 52.47022 4.59463 218 ft 16 kts 253°
2026-04-17 20:25 52.47072 4.59585 515 ft 5 kts 246°
2026-04-17 20:25 52.46978 4.59180 641 ft 71 kts 248°
2026-04-17 20:25 52.46742 4.58219 677 ft 101 kts 251°
2026-04-17 20:26 52.46499 4.57172 958 ft 96 kts 251°
2026-04-17 20:26 52.46304 4.56147 1084 ft 94 kts 250°
2026-04-17 20:26 52.45918 4.55246 1070 ft 102 kts 221°
2026-04-17 20:26 52.45319 4.54603 1067 ft 106 kts 214°
2026-04-17 20:27 52.44694 4.53968 1068 ft 105 kts 212°
2026-04-17 20:27 52.44057 4.53369 1067 ft 105 kts 212°
2026-04-17 20:27 52.43392 4.52741 1064 ft 113 kts 211°
2026-04-17 20:27 52.42717 4.52110 1063 ft 111 kts 212°
2026-04-17 20:28 52.42044 4.51483 1065 ft 111 kts 211°
2026-04-17 20:28 52.41367 4.50851 1062 ft 113 kts 212°
2026-04-17 20:28 52.40687 4.50218 1064 ft 112 kts 212°
2026-04-17 20:28 52.40010 4.49587 1064 ft 112 kts 212°
2026-04-17 20:29 52.39335 4.48958 1062 ft 112 kts 212°
2026-04-17 20:29 52.38656 4.48324 1064 ft 112 kts 211°
2026-04-17 20:29 52.37983 4.47698 1067 ft 111 kts 211°
2026-04-17 20:29 52.37317 4.47078 1060 ft 111 kts 211°
2026-04-17 20:30 52.35968 4.45822 1068 ft 111 kts 211°
2026-04-17 20:30 52.35285 4.45185 1063 ft 114 kts 211°
2026-04-17 20:30 52.34597 4.44544 1065 ft 114 kts 211°
2026-04-17 20:31 52.33907 4.43903 1064 ft 113 kts 211°
2026-04-17 20:31 52.33222 4.43267 1063 ft 113 kts 211°
2026-04-17 20:31 52.32529 4.42623 1067 ft 114 kts 211°
2026-04-17 20:31 52.31841 4.41985 1062 ft 113 kts 211°
2026-04-17 20:32 52.31158 4.41351 1061 ft 113 kts 211°
2026-04-17 20:32 52.30473 4.40715 1061 ft 113 kts 216°
2026-04-17 20:32 52.29789 4.40074 1064 ft 113 kts 216°
2026-04-17 20:32 52.29107 4.39444 1066 ft 112 kts 216°
2026-04-17 20:33 52.28429 4.38817 1064 ft 112 kts 216°
2026-04-17 20:33 52.27744 4.38181 1067 ft 113 kts 216°
2026-04-17 20:33 52.27069 4.37557 1065 ft 113 kts 216°
2026-04-17 20:33 52.26382 4.36921 1068 ft 114 kts 216°
2026-04-17 20:34 52.25695 4.36287 1065 ft 113 kts 216°
2026-04-17 20:34 52.25005 4.35647 1063 ft 115 kts 216°
2026-04-17 20:34 52.24312 4.35007 1067 ft 114 kts 216°
2026-04-17 20:34 52.23626 4.34376 1064 ft 113 kts 216°
2026-04-17 20:35 52.22938 4.33737 1065 ft 114 kts 216°
2026-04-17 20:35 52.22245 4.33095 1063 ft 115 kts 216°
2026-04-17 20:35 52.21554 4.32460 1064 ft 114 kts 216°
2026-04-17 20:35 52.20863 4.31821 1065 ft 114 kts 216°
2026-04-17 20:36 52.20172 4.31182 1065 ft 114 kts 216°
2026-04-17 20:36 52.19484 4.30548 1066 ft 114 kts 216°
2026-04-17 20:36 52.18788 4.29904 1064 ft 115 kts 216°
2026-04-17 20:36 52.18092 4.29264 1071 ft 114 kts 216°
2026-04-17 20:37 52.17402 4.28629 1067 ft 114 kts 216°
2026-04-17 20:37 52.16709 4.27989 1067 ft 115 kts 216°
2026-04-17 20:37 52.16014 4.27349 1068 ft 114 kts 215°
2026-04-17 20:37 52.15320 4.26712 1066 ft 114 kts 215°
2026-04-17 20:38 52.14638 4.26085 1069 ft 113 kts 215°
2026-04-17 20:38 52.13950 4.25450 1068 ft 115 kts 216°
2026-04-17 20:38 52.13252 4.24809 1071 ft 114 kts 216°
2026-04-17 20:38 52.12566 4.24182 1069 ft 113 kts 216°
2026-04-17 20:39 52.11880 4.23550 1064 ft 114 kts 216°
2026-04-17 20:39 52.11188 4.22914 1071 ft 114 kts 216°
2026-04-17 20:39 52.10499 4.22284 1069 ft 114 kts 216°
2026-04-17 20:39 52.09807 4.21648 1065 ft 114 kts 216°
2026-04-17 20:40 52.09115 4.21012 1067 ft 114 kts 216°
2026-04-17 20:40 52.08422 4.20377 1069 ft 114 kts 216°
2026-04-17 20:40 52.07726 4.19741 1066 ft 114 kts 216°
2026-04-17 20:40 52.07267 4.19319 1070 ft 115 kts 215°
2026-04-17 20:41 52.06574 4.18685 1065 ft 114 kts 216°
2026-04-17 20:41 52.05880 4.18049 1065 ft 114 kts 216°
2026-04-17 20:41 52.05186 4.17414 1064 ft 114 kts 216°
2026-04-17 20:41 52.04497 4.16784 1071 ft 114 kts 216°
2026-04-17 20:42 52.03805 4.16151 1067 ft 114 kts 216°
2026-04-17 20:42 52.03112 4.15515 1071 ft 115 kts 216°
2026-04-17 20:42 52.02426 4.14862 1072 ft 113 kts 220°
2026-04-17 20:42 52.01819 4.14049 1070 ft 113 kts 226°
2026-04-17 20:43 52.01219 4.13205 1069 ft 114 kts 227°
2026-04-17 20:43 52.00620 4.12361 1071 ft 114 kts 226°
2026-04-17 20:43 52.00021 4.11518 1067 ft 114 kts 226°
2026-04-17 20:43 51.99422 4.10673 1075 ft 114 kts 226°
2026-04-17 20:44 51.98820 4.09849 1019 ft 113 kts 221°
2026-04-17 20:44 51.98220 4.09178 933 ft 92 kts 221°
2026-04-17 20:44 51.97741 4.08696 923 ft 72 kts 229°
2026-04-17 20:44 51.97358 4.08306 863 ft 65 kts 218°
2026-04-17 20:45 51.96930 4.08042 759 ft 63 kts 161°
2026-04-17 20:45 51.96551 4.08237 564 ft 60 kts 142°
2026-04-17 20:45 51.96247 4.08632 304 ft 43 kts 146°
2026-04-17 20:45 51.96071 4.08843 173 ft 22 kts 146°
2026-04-17 20:46 51.95975 4.08963 81 ft 13 kts 152°
2026-04-17 20:46 51.95946 4.08986 37 ft 1 kts 157°
2026-04-17 20:46 51.95949 4.09002 36 ft 2 kts 199°
2026-04-17 20:46 51.95946 4.09012 33 ft 1 kts 207°
2026-04-17 20:47 51.95944 4.09012 27 ft 0 kts 207°
2026-04-17 20:47 51.95943 4.09011 27 ft 1 kts 204°
2026-04-17 20:47 51.95943 4.09012 26 ft 0 kts 208°